Weather in Utrecht

Netherlands     52°05′46″N   5°06′42″E
temp.,
°C
wind,
m/s
gust,
m/s
humid.,
%
clouds,
%
prec.,
mm/h
press.,
hPa
HPBL,
m
17 june, thu
thu1723:00+21ne22662 0.0 101131
02:00+20ese33787 0.0 101053
05:00+19se22755 0.1 100926
08:00+23se367124 0.2 1008193
11:00+26w366795 0.7 1009651
14:00+28ssw795612 0.7 10101564
17:00+29wsw56520 0.0 10101449
20:00+25nw4666100 0.0 1011315
18 june, fri
fri1823:00+19nnw3590100 0.4 1013157
02:00+18n2297100 1.8 101466
05:00+18ne2496100 0.9 1013119
08:00+18nne3598100 2.8 1013215
11:00+21ene458452 0.0 1013510
14:00+27se466046 0.3 10121440
17:00+24e228092 2.4 101043
20:00+24ssw48805 3.8 1010205
19 june, sat
sat1923:00+20s411905 1.1 1011273
02:00+18s411891 1.1 1011401
05:00+16sw61289100 0.1 1012964
08:00+15wsw71482100 0.1 1014740
11:00+18w711676 0.0 1015747
14:00+20s215974 0.0 10171185
17:00+22ese225881 0.0 10151250
20:00+21ne466712 0.0 1014599
20 june, sun
sun2023:00+17ne61278100 0.0 1012471
02:00+15e61492100 0.9 1010539
05:00+15ene81797100 11.3 1004503
08:00+19sse91589100 13.4 1002963
11:00+23s81370100 0.1 10041447
14:00+25ssw81156100 0.1 10041832
17:00+25ssw69518 0.0 10042030
20:00+21w48775 0.7 1005382
21 june, mon
mon2123:00+15wnw258913 0.0 1007145
02:00+14n1289100 0.0 100770
05:00+13nnw2385100 0.0 1007123
08:00+15nnw227856 0.0 1007332
11:00+16nw3375100 0.3 1008566
14:00+14nnw3592100 4.8 1009362
17:00+16nnw3376100 0.1 1009804
20:00+15nw467276 0.1 1009702